Torna al catalogo

OBJECT C

AttivoSSO
NORAD 100131·UNKNOWN·🇨🇳 China

Lanciato Jul 22, 2026 da Yellow Sea Launch Area

Loading…

Prossimi Passaggi (prossime 24 ore)

TLE

AggiornatoSource: Space-Track

Epoca: Sep 14, 2026, 04:35 UTC

1 A0131U 26168C   26257.19107387  .00002844  00000-0  18029-3 0  9997
2 A0131  97.5364 338.0052 0020599 141.5926 218.6774 15.09568838  8168

Traccia OBJECT C in tempo reale con AllMySat

Download on the App Store